McAllen, TX

5:37 PM CDT on May 24, 2017 (GMT -0500)
McAllen Miller International

Weather History for KMFE - January, 2012

Change the Weather History Date:

Thursday, January 12, 2012

  Actual Average Record
Temperature  
Mean Temperature 51 °F 60 °F  
Max Temperature 59 °F 71 °F 89 °F (1989)
Min Temperature 42 °F 50 °F 13 °F (1962)
Degree Days  
Heating Degree Days 14 6  
Month to date heating degree days 48 83  
Since 1 July heating degree days 247 320  
Cooling Degree Days 0 2  
Month to date cooling degree days 12 24  
Year to date cooling degree days 12 24  
Growing Degree Days 2 (Base 50)    
Moisture  
Dew Point 33 °F    
Average Humidity 58    
Maximum Humidity 93    
Minimum Humidity 22    
Precipitation  
Precipitation 0.00 in 0.04 in 0.55 in (1977)
Month to date precipitation 0.21 0.40  
Year to date precipitation 0.21 0.40  
Sea Level Pressure  
Sea Level Pressure 30.15 in    
Wind  
Wind Speed 13 mph (North)    
Max Wind Speed 9 mph    
Max Gust Speed 14 mph    
Visibility 10 miles    
Events      
T = Trace of Precipitation, MM = Missing Value Source: NWS Daily Summary

Daily Weather History Graph

Daily Weather History Graph

Search for Another Location

Airport or City:

Trip Planner

Search our weather history database for the weather conditions in past years. The results will help you decide how hot, cold, wet, or windy it might be!

Date:

Astronomy

Jan. 12, 2012 Rise Set
Actual Time 7:22 AM CST 6:00 PM CST
Civil Twilight 6:57 AM CST 6:25 PM CST
Nautical Twilight 6:28 AM CST 6:53 PM CST
Astronomical Twilight 6:00 AM CST 7:21 PM CST
Moon 9:39 PM CST (1/12) 9:30 AM CST (1/12)
Length of Visible Light 11h 28m
Length of Day
10h 38m
Waning Gibbous, 87% of the Moon is Illuminated
Jan 12
Waning Gibbous
Jan 16
Last Quarter
Jan 23
New
Jan 30
First Quarter
Feb 7
Full

Hourly Weather History & Observations

Time (CST) Temp. Windchill Dew Point Humidity Pressure Visibility Wind Dir Wind Speed Gust Speed Precip Events Conditions
12:53 AM 57.0 °F - 53.1 °F 87% 29.82 in 10.0 mi SE 5.8 mph - N/A   Clear
1:53 AM 55.9 °F - 53.1 °F 90% 29.84 in 10.0 mi SSE 5.8 mph - N/A   Clear
2:53 AM 55.9 °F - 54.0 °F 93% 29.84 in 10.0 mi Calm Calm - N/A   Clear
3:53 AM 57.0 °F - 54.0 °F 89% 29.89 in 10.0 mi NNW 12.7 mph 31.1 mph N/A   Partly Cloudy
4:53 AM 59.0 °F - 55.0 °F 87% 29.92 in 10.0 mi NNE 8.1 mph - N/A   Clear
5:53 AM 57.0 °F - 46.9 °F 69% 29.98 in 10.0 mi North 18.4 mph 25.3 mph N/A   Clear
6:16 AM 57.2 °F - 42.8 °F 59% 30.03 in 10.0 mi North 20.7 mph 27.6 mph N/A   Mostly Cloudy
6:48 AM 55.4 °F - 39.2 °F 54% 30.07 in 10.0 mi North 21.9 mph 29.9 mph N/A   Overcast
6:53 AM 55.0 °F - 39.9 °F 57% 30.07 in 10.0 mi North 23.0 mph 29.9 mph N/A   Mostly Cloudy
7:53 AM 53.1 °F - 39.0 °F 59% 30.13 in 10.0 mi North 20.7 mph 34.5 mph N/A   Clear
8:53 AM 53.1 °F - 36.0 °F 52% 30.21 in 10.0 mi North 24.2 mph 35.7 mph N/A   Overcast
9:53 AM 55.0 °F - 35.1 °F 47% 30.25 in 10.0 mi North 24.2 mph 32.2 mph N/A   Mostly Cloudy
10:53 AM 55.9 °F - 30.9 °F 39% 30.27 in 10.0 mi North 23.0 mph 32.2 mph N/A   Clear
11:53 AM 55.9 °F - 28.0 °F 34% 30.28 in 10.0 mi North 23.0 mph 31.1 mph N/A   Clear
12:53 PM 57.0 °F - 26.1 °F 30% 30.26 in 10.0 mi North 19.6 mph 28.8 mph N/A   Clear
1:53 PM 57.0 °F - 23.0 °F 27% 30.24 in 10.0 mi NNW 21.9 mph 27.6 mph N/A   Clear
2:53 PM 57.0 °F - 19.9 °F 24% 30.23 in 10.0 mi North 15.0 mph 25.3 mph N/A   Clear
3:53 PM 55.9 °F - 19.0 °F 24% 30.24 in 10.0 mi NNW 11.5 mph - N/A   Clear
4:53 PM 55.9 °F - 24.1 °F 29% 30.24 in 10.0 mi NNW 10.4 mph - N/A   Clear
5:53 PM 55.9 °F - 17.1 °F 22% 30.25 in 10.0 mi North 12.7 mph - N/A   Clear
6:53 PM 53.1 °F - 19.0 °F 26% 30.28 in 10.0 mi NNW 6.9 mph - N/A   Clear
7:53 PM 52.0 °F - 21.0 °F 30% 30.29 in 10.0 mi North 5.8 mph - N/A   Clear
8:53 PM 46.9 °F - 23.0 °F 39% 30.30 in 10.0 mi NNW 4.6 mph - N/A   Clear
9:53 PM 45.0 °F 41.8 °F 24.1 °F 44% 30.31 in 10.0 mi NNW 5.8 mph - N/A   Clear
10:53 PM 44.1 °F 40.8 °F 23.0 °F 43% 30.31 in 10.0 mi NNW 5.8 mph - N/A   Clear
11:53 PM 42.1 °F 39.2 °F 24.1 °F 49% 30.32 in 10.0 mi NNW 4.6 mph - N/A   Clear